Port Orchard, Washington, United States (98366)
Lat: 47.54N, Lon: 122.64W
Wx Zone: WAZ508
Local Info
Past Weather Observations for Saturday, September 24, 2016

NOTE: This archive is for the closest National Weather Service station to Port Orchard. Information may differ from the station used for current weather conditions.

Click here for Long-term Archive

Time Weather Temperature Dewpoint Humidity Pressure Winds Precip Visibility
23:55
Overcast
54°F / 12°C 52°F / 11°C 94% 30.42 in
(1030 mb)
Calm - 10SM
23:35
Overcast
54°F / 12°C 52°F / 11°C 94% 30.42 in
(1030 mb)
Calm - 10SM
23:15
Mostly Cloudy
54°F / 12°C 52°F / 11°C 94% 30.42 in
(1030 mb)
Calm - 10SM
22:55
Mostly Cloudy
55°F / 13°C 52°F / 11°C 88% 30.42 in
(1030 mb)
Calm - 10SM
22:35
Overcast
55°F / 13°C 52°F / 11°C 88% 30.42 in
(1030 mb)
Calm - 10SM
22:15
Overcast
57°F / 14°C 52°F / 11°C 82% 30.42 in
(1030 mb)
Calm - 10SM
21:55
Overcast
57°F / 14°C 52°F / 11°C 82% 30.42 in
(1030 mb)
Calm - 10SM
21:35
Overcast
57°F / 14°C 52°F / 11°C 82% 30.42 in
(1030 mb)
Calm - 10SM
21:15
Overcast
57°F / 14°C 52°F / 11°C 82% 30.42 in
(1030 mb)
Calm - 10SM
20:55
Overcast
57°F / 14°C 52°F / 11°C 82% 30.42 in
(1030 mb)
Calm - 10SM
20:35
Overcast
57°F / 14°C 52°F / 11°C 82% 30.42 in
(1030 mb)
Calm - 10SM
20:15
Overcast
57°F / 14°C 52°F / 11°C 82% 30.39 in
(1029 mb)
Calm - 10SM
19:55
Overcast
57°F / 14°C 52°F / 11°C 82% 30.39 in
(1029 mb)
Calm - 10SM
19:35
Overcast
57°F / 14°C 52°F / 11°C 82% 30.39 in
(1029 mb)
Calm - 10SM
19:15
Overcast
57°F / 14°C 52°F / 11°C 82% 30.39 in
(1029 mb)
Calm - 10SM
18:55
Overcast
59°F / 15°C 50°F / 10°C 72% 30.39 in
(1029 mb)
Calm - 10SM
18:35
Overcast
61°F / 16°C 50°F / 10°C 68% 30.39 in
(1029 mb)
Calm - 10SM
18:15
Overcast
61°F / 16°C 50°F / 10°C 68% 30.36 in
(1028 mb)
Calm - 10SM
17:55
Overcast
59°F / 15°C 50°F / 10°C 72% 30.36 in
(1028 mb)
Calm - 10SM
17:35
Overcast
61°F / 16°C 48°F / 9°C 63% 30.39 in
(1029 mb)
Calm - 10SM
17:15
Overcast
61°F / 16°C 48°F / 9°C 63% 30.39 in
(1029 mb)
Calm - 10SM
16:55
Overcast
61°F / 16°C 48°F / 9°C 63% 30.36 in
(1028 mb)
S 3.5 mph
(S 6 kph)
- 10SM
16:35
Overcast
63°F / 17°C 50°F / 10°C 64% 30.36 in
(1028 mb)
S 4.6 mph
(S 7 kph)
- 10SM
16:15
Mostly Cloudy
63°F / 17°C 50°F / 10°C 64% 30.36 in
(1028 mb)
S 4.6 mph
(S 7 kph)
- 10SM
15:55
Mostly Cloudy
63°F / 17°C 50°F / 10°C 64% 30.39 in
(1029 mb)
S 6.9 mph
(S 11 kph)
- 10SM
15:35
Mostly Cloudy
63°F / 17°C 50°F / 10°C 64% 30.36 in
(1028 mb)
S 5.8 mph
(S 9 kph)
- 10SM
15:15
Mostly Cloudy
64°F / 18°C 48°F / 9°C 56% 30.39 in
(1029 mb)
SSW 5.8 mph
(SSW 9 kph)
- 10SM
14:55
Mostly Cloudy
63°F / 17°C 48°F / 9°C 59% 30.36 in
(1028 mb)
S 4.6 mph
(S 7 kph)
- 10SM
14:35
Mostly Cloudy
64°F / 18°C 48°F / 9°C 56% 30.39 in
(1029 mb)
Calm - 10SM
14:15
Partly Cloudy
64°F / 18°C 48°F / 9°C 56% 30.39 in
(1029 mb)
W 3.5 mph
(W 6 kph)
- 10SM
13:55
Partly Cloudy
64°F / 18°C 48°F / 9°C 56% 30.36 in
(1028 mb)
SSW 3.5 mph
(SSW 6 kph)
- 10SM
13:35
Partly Cloudy
63°F / 17°C 48°F / 9°C 59% 30.39 in
(1029 mb)
SW 5.8 mph
(SW 9 kph)
- 10SM
13:15
Mostly Cloudy
64°F / 18°C 50°F / 10°C 60% 30.39 in
(1029 mb)
SW 4.6 mph
(SW 7 kph)
- 10SM
12:55
Mostly Cloudy
63°F / 17°C 48°F / 9°C 59% 30.42 in
(1030 mb)
SSW 3.5 mph
(SSW 6 kph)
- 10SM
12:35
Mostly Cloudy
63°F / 17°C 50°F / 10°C 64% 30.42 in
(1030 mb)
SSW 4.6 mph
(SSW 7 kph)
- 10SM
12:15
Mostly Cloudy
63°F / 17°C 50°F / 10°C 64% 30.42 in
(1030 mb)
SW 8.1 mph
(SW 13 kph)
- 9SM
11:55
Mostly Cloudy
61°F / 16°C 48°F / 9°C 63% 30.42 in
(1030 mb)
SSE 4.6 mph
(SSE 7 kph)
- 10SM
11:35
Partly Cloudy
61°F / 16°C 48°F / 9°C 63% 30.42 in
(1030 mb)
S 3.5 mph
(S 6 kph)
- 10SM
11:15
Partly Cloudy
63°F / 17°C 48°F / 9°C 59% 30.42 in
(1030 mb)
SSE 3.5 mph
(SSE 6 kph)
- 10SM
10:55
Clear
59°F / 15°C 50°F / 10°C 72% 30.42 in
(1030 mb)
E 4.6 mph
(E 7 kph)
- 10SM
10:35
Partly Cloudy
59°F / 15°C 48°F / 9°C 68% 30.42 in
(1030 mb)
SE 4.6 mph
(SE 7 kph)
- 10SM
10:15
Overcast
59°F / 15°C 50°F / 10°C 72% 30.42 in
(1030 mb)
SSE 6.9 mph
(SSE 11 kph)
- 10SM
09:55
Overcast
57°F / 14°C 50°F / 10°C 77% 30.42 in
(1030 mb)
SSE 3.5 mph
(SSE 6 kph)
- 10SM
09:35
Overcast
57°F / 14°C 50°F / 10°C 77% 30.42 in
(1030 mb)
S 4.6 mph
(S 7 kph)
- 10SM
09:15
Mostly Cloudy
57°F / 14°C 52°F / 11°C 82% 30.42 in
(1030 mb)
E 4.6 mph
(E 7 kph)
- 10SM
08:55
Clear
57°F / 14°C 52°F / 11°C 82% 30.42 in
(1030 mb)
Calm - 10SM
08:35
Partly Cloudy
54°F / 12°C 52°F / 11°C 94% 30.39 in
(1029 mb)
Calm - 10SM
08:15
Mostly Cloudy
54°F / 12°C 52°F / 11°C 94% 30.39 in
(1029 mb)
Calm - 10SM
07:55
Overcast
52°F / 11°C 52°F / 11°C 100% 30.39 in
(1029 mb)
Calm - 10SM
07:35
Overcast
52°F / 11°C 52°F / 11°C 100% 30.39 in
(1029 mb)
Calm - 10SM
07:15
Overcast
52°F / 11°C 52°F / 11°C 100% 30.39 in
(1029 mb)
S 3.5 mph
(S 6 kph)
- 8SM
06:55
Overcast
52°F / 11°C 50°F / 10°C 94% 30.39 in
(1029 mb)
Calm - 1 3/4SM
06:35
Overcast
50°F / 10°C 50°F / 10°C 100% 30.36 in
(1028 mb)
Calm - M1/4SM
06:15
Overcast
50°F / 10°C 50°F / 10°C 100% 30.36 in
(1028 mb)
Calm - M1/4SM
05:55
Overcast
50°F / 10°C 50°F / 10°C 100% 30.36 in
(1028 mb)
S 4.6 mph
(S 7 kph)
- 1/2SM
05:35
Overcast
50°F / 10°C 50°F / 10°C 100% 30.36 in
(1028 mb)
SSE 3.5 mph
(SSE 6 kph)
- 3/4SM
05:15
Overcast
52°F / 11°C 50°F / 10°C 94% 30.36 in
(1028 mb)
Calm - 5SM
04:55
Overcast
52°F / 11°C 50°F / 10°C 94% 30.36 in
(1028 mb)
Calm - 10SM
04:35
Overcast
48°F / 9°C 48°F / 9°C 100% 30.36 in
(1028 mb)
Calm - 9SM
04:15
Mostly Cloudy
50°F / 10°C 48°F / 9°C 94% 30.33 in
(1027 mb)
Calm - 10SM
03:55
Overcast
50°F / 10°C 50°F / 10°C 100% 30.33 in
(1027 mb)
Calm - 4SM
03:35
Overcast
52°F / 11°C 50°F / 10°C 94% 30.33 in
(1027 mb)
Calm - 10SM
03:15
Overcast
52°F / 11°C 50°F / 10°C 94% 30.33 in
(1027 mb)
Calm - 10SM
02:55
Overcast
52°F / 11°C 52°F / 11°C 100% 30.33 in
(1027 mb)
Calm - 10SM
02:35
Mostly Cloudy
52°F / 11°C 52°F / 11°C 100% 30.3 in
(1026 mb)
Calm - 10SM
02:15
Overcast
52°F / 11°C 52°F / 11°C 100% 30.33 in
(1027 mb)
Calm - 10SM
01:55
Overcast
52°F / 11°C 52°F / 11°C 100% 30.3 in
(1026 mb)
SE 3.5 mph
(SE 6 kph)
- 10SM
01:35
Overcast
52°F / 11°C 52°F / 11°C 100% 30.3 in
(1026 mb)
Calm - 10SM
01:15
Overcast
52°F / 11°C 52°F / 11°C 100% 30.3 in
(1026 mb)
Calm - 10SM
00:55
Overcast
52°F / 11°C 52°F / 11°C 100% 30.27 in
(1025 mb)
SSE 4.6 mph
(SSE 7 kph)
- 10SM
00:35
Overcast
54°F / 12°C 52°F / 11°C 94% 30.27 in
(1025 mb)
Calm - 10SM
00:15
Overcast
52°F / 11°C 52°F / 11°C 100% 30.27 in
(1025 mb)
Calm - 10SM
Time Weather Temperature Dewpoint Humidity Pressure Winds Precip Visibility


Weather for websites

WeatherForYou.com, LLC is not responsible for any damages or problems caused by this service. Current weather conditions are obtained from the closest station including government and personal stations which may have varying degrees of accuracy. Weather forecasts are derived from the NOAA NDFD. Like all things, this site belongs to Jesus Christ... He just trusts us to maintain it. If you have any questions or comments email webmaster@weatherforyou.com

Copyright © 2016, WeatherForYou.com LLC. All rights reserved.